Showing default

YUNYAO-1 47, 63348

Orbit data source: Space-Track

YUNYAO-1 47, 63348 is a payload satellite owned by Yunyao yuhang (CN) in SSO that was launched on Fri, 21 Mar 2025 UTC via a GUSHENXING 1 launch vehicle from the Jiuquan Satellite Launch Center, China (JSC). Payload-class satellites include a variety of spacecraft equipped with specific instruments for various scientific and technological missions. These include communications satellites like Starlink; space stations such as the ISS; scientific satellites like the Hubble; Earth observation satellites from companies like Planet Labs, Umbra, and HawkEye 360; GPS; miniature CubeSats for education and research; and military/defense satellites.

Loading next visibility...
Identifier
63348, 2025-059E
Orbit
SSO
Country
Flag of CNCN / PRC
Related business
Manufacturer
Changguang WJ
Mission
Operational Commercial Meteo Radio Occ.
Bus & Motor
YY-1, Unknown motor
Mass
~50 kg wet, ~50 kg dry
Launch date (UTC)
2025-03-21 (7 months ago)
Launch vehicle
GUSHENXING 1
Launch site
Jiuquan Satellite Launch Center, China (JSC)
Object type
Payload
Rocket body
Debris
Shape & HBR
Box + 1 Pan, 0.6 m
Radar Cross Section
5.339 m², Medium (>0.1 m² and < 1m²)

Expand to show TLE details & history
Last TLE update: 22 hours ago

TLE from 22 hours ago
0 YUNYAO-1 47
1 63348U 25059E   25306.50436601  .00004960  00000-0  31579-3 0  9993
2 63348  97.6013 124.4866 0016013 211.7263 148.3002 15.09129738 34084
Epoch: 2025-11-02T12:06Z
TLE epoch observation values (Epoch: 2025-11-02T12:06:17.223Z)
Latitude
-0.00002°
Longitude
-99.1043°
Altitude
551.359 km
Speed
7.581 km/s
True Right ascension
08h 17m 56s
True Declination
0° 00' 00"
Sunlit
Object was in daylight at epoch
Visualization orbit readout
Latitude
Unknown
Longitude
Unknown
Altitude
Unknown
Speed
Unknown
Apparent Right ascension
Unknown
Apparent Declination
Unknown
Sunlit
N/A
Visualization observer readout
Local Sidereal Time
06:24:49
Azimuth
Unknown
Elevation
Unknown
Doppler factor
Unknown
Orbital elements
Apogee altitude
546.918 km
Perigee altitude
524.775 km
Semi-major axis
6,913.984 km
Eccentricity
0.0016
Inclination
97.6013°
RAAN
124.4866°
Arg. of periapsis
211.7263°
True anomaly
148.39646°
Mean anomaly
148.3002°
Eccentric anomaly
148.34834°
Mean motion
3.77529 °/min
Orbital period
95.36 mins
BSTAR
0.00031579
Loading maneuver chart data...
Computing Atmospheric mass density...
Loading historical data...
Loading historical data...
Loading historical data...
Loading historical data...
Loading historical data...
Loading historical data...
Loading historical data...
Other satellites on launch #59 in the year 2025 (2025-03-21 UTC)

Documentation

Showing up to 5 results
|